Hors Challenge

L' Allure Libre D'Assenois (9.00 km)

vendredi 06 septembre 2019

 
L' ALLURE LIBRE D'ASSENOIS
DISTANCE : 9.00 km
vendredi 06 septembre 2019
 
Place NOM Catégorie Pl/cat temps temps/km Vitesse
01:00:00            
1 FORTIN YOHAN HOMME 1 00:33:15 03:42 16.24
2 DAY NICOLAS HOMME 2 00:35:58 04:00 15.01
3 STEFFEN JOHN HOMME 3 00:37:40 04:11 14.34
4 FILON OREN HOMME 4 00:39:26 04:23 13.69
5 PAQUET RAPHAËL HOMME 5 00:39:42 04:25 13.60
6 DREZEN ALAIN HOMME 6 00:39:50 04:26 13.56
7 CONNIASSELLE FRANÇOIS HOMME 7 00:41:36 04:37 12.98
8 MILLARD YANNICK HOMME 8 00:42:58 04:46 12.57
9 LAMOCK STANY HOMME 9 00:43:15 04:48 12.49
10 HUBERTY ERIC HOMME 10 00:43:49 04:52 12.32
11 VAN MENSEL FRANCKY HOMME 11 00:44:16 04:55 12.20
12 GARNIER ELYO HOMME 12 00:44:21 04:56 12.18
13 CORNET YOAN HOMME 13 00:44:28 04:56 12.14
14 COLLIN THOMAS HOMME 14 00:44:40 04:58 12.09
15 LEQUEUX FRED HOMME 15 00:45:40 05:04 11.82
16 JOB YAN HOMME 16 00:45:46 05:05 11.80
17 MATHIEU DAMIEN HOMME 17 00:45:47 05:05 11.79
18 WEYRICH CHRISTINE DAME 1 00:45:53 05:06 11.77
19 THIMOTHEE KEVIN HOMME 18 00:46:22 05:09 11.65
20 TINANT JULIEN HOMME 19 00:46:30 05:10 11.61
21 THERER ROMAIN HOMME 20 00:46:35 05:11 11.59
22 MEINGUET STÉPHANE HOMME 21 00:46:55 05:13 11.51
23 MINSIER YVES HOMME 22 00:46:57 05:13 11.50
24 COLLET SÉBASTIEN HOMME 23 00:46:59 05:13 11.49
25 NOEL JEAN-MARIE HOMME 24 00:47:25 05:16 11.39
26 OGER BRUNO HOMME 25 00:47:32 05:17 11.36
27 GOFFIN JEAN-CLAUDE HOMME 26 00:47:45 05:18 11.31
28 CONROTTE JEAN-FRANÇOIS HOMME 27 00:47:59 05:20 11.25
29 NOEL XAVIER HOMME 28 00:48:06 05:21 11.23
30 FONSNY AUDE DAME 2 00:48:08 05:21 11.22
31 CONNEROTTE ALEXIA DAME 3 00:48:13 05:21 11.20
32 VANDEWIELE BRUNO HOMME 29 00:48:32 05:24 11.13
33 REPKA NANCY DAME 4 00:49:13 05:28 10.97
34 PIERRARD JONATHAN HOMME 30 00:49:49 05:32 10.84
35 SIZAIRE ADRIEN HOMME 31 00:50:06 05:34 10.78
36 MICHEL CYRIL HOMME 32 00:50:10 05:34 10.76
37 PEIFFER LAURENT HOMME 33 00:50:26 05:36 10.71
38 GOSSE JACQUELINE DAME 5 00:50:51 05:39 10.62
39 PONCIN DIDIER HOMME 34 00:51:19 05:42 10.52
40 STEIOFF STÉPHANE HOMME 35 00:51:47 05:45 10.43
41 PONCIN OLIVIER HOMME 36 00:51:53 05:46 10.41
42 MORTIER ANGÉLIQUE DAME 6 00:51:57 05:46 10.39
43 BROCARD CYRIL HOMME 37 00:52:01 05:47 10.38
44 PONCIN GÉRARD HOMME 38 00:52:19 05:49 10.32
45 DEOM MANON DAME 7 00:52:26 05:50 10.30
46 BERTIC FABIEN HOMME 39 00:52:33 05:50 10.28
47 OGER MICHEL HOMME 40 00:52:39 05:51 10.26
48 MERVILLE VINCENT HOMME 41 00:52:44 05:52 10.24
49 LOOTVOET CÉDRIC HOMME 42 00:52:47 05:52 10.23
50 MEYER CLAUDY HOMME 43 00:53:05 05:54 10.17
51 DEOM CHRISTIAN HOMME 44 00:53:40 05:58 10.06
52 PONCIN CHRISTOPHER HOMME 45 00:53:57 06:00 10.01
53 CLEMENT SERGE HOMME 46 00:54:07 06:01 9.98
54 POOS ANNE-SOPHIE DAME 8 00:54:24 06:03 9.93
55 POOS FLORIAN HOMME 47 00:54:25 06:03 9.92
56 DEBLIRE SÉVERINE DAME 9 00:54:54 06:06 9.84
57 DABE FABIENNE DAME 10 00:55:05 06:07 9.80
58 BOUVY EMMANUELLE DAME 11 00:56:00 06:13 9.64
59 DESSOY ANTHONY HOMME 48 00:58:04 06:27 9.30
60 MERNIER PHILIPPE HOMME 49 00:58:22 06:29 9.25
61 BRUNDSEAUX AXELLE DAME 12 01:05:01 07:13 8.31
62 PAQUET STÉPHANIE DAME 13 01:05:02 07:14 8.30
63 DAUBY MAÏTÉ DAME 14 01:06:53 07:26 8.07
64 FRANTZEN AURÉLIE DAME 15 01:09:23 07:43 7.78
65 DE COCK ERIC HOMME 50 01:11:40 07:58 7.53
66 BOUILLON FLORENCE DAME 16 01:15:06 08:21 7.19
67 SIMON MARTIN HOMME 51 01:15:07 08:21 7.19